Tracking 18980 objects as of 21-Feb-2018
HD Live streaming from Space Station
objects crossing your sky now

FENGYUN 1C DEB

Track FENGYUN 1C DEB now!
10-day predictions


NORAD ID: 36257
Int'l Code: 1999-025DWJ
Perigee: 772.8 km
Apogee: 805.3 km
Inclination: 99.1 °
Period: 100.5 minutes
Semi major axis: 7160 km
RCS: 0.0135 m2 (small)
Launch date: May 10, 1999
Source: People's Republic of China (PRC)
Launch site: Taiyaun Space Center, China (TSC)

Note: This is SATELLITE DEBRIS
aabbcc
Your satellite tracking list
Your tracking list is empty




NASA's NSSDC Master Catalog

Two Line Element Set (TLE):
1 36257U 99025DWJ 18046.25001161 +.00001507 +00000-0 +56760-3 0  9993
2 36257 099.1091 215.9931 0022702 029.3197 330.9254 14.32930705234063
Source of the keplerian elements: AFSPC